Decimomannu, Italy

12:53 PM CEST on June 27, 2017 (GMT +0200)
Decimomannu Mil

Weather History for LIED - November, 2012

Change the Weather History Date:

Friday, November 16, 2012

  Actual Average Record
Temperature  
Mean Temperature 59 °F -  
Max Temperature 68 °F 62 °F 73 °F (2001)
Min Temperature 50 °F 44 °F 42 °F (1997)
Degree Days  
Heating Degree Days 6    
Growing Degree Days 9 (Base 50)    
Moisture  
Dew Point 53 °F    
Average Humidity 79    
Maximum Humidity 88    
Minimum Humidity 53    
Precipitation  
Precipitation 0.00 in 0.08 in - ()
Sea Level Pressure  
Sea Level Pressure 30.00 in    
Wind  
Wind Speed 2 mph ()    
Max Wind Speed 6 mph    
Max Gust Speed -    
Visibility 5.9 miles    
Events      
Averages and records for this station are not official NWS values.
T = Trace of Precipitation, MM = Missing Value Source: Averaged Metar Reports

Daily Weather History Graph

Daily Weather History Graph

Search for Another Location

Airport or City:

Trip Planner

Search our weather history database for the weather conditions in past years. The results will help you decide how hot, cold, wet, or windy it might be!

Date:

Astronomy

Nov. 16, 2012 Rise Set
Actual Time 7:09 AM CET 5:08 PM CET
Civil Twilight 6:40 AM CET 5:37 PM CET
Nautical Twilight 6:07 AM CET 6:09 PM CET
Astronomical Twilight 5:36 AM CET 6:41 PM CET
Moon 9:48 AM CET (11/16) 7:49 PM CET (11/16)
Length of Visible Light 10h 56m
Length of Day
9h 59m
Waxing Crescent, 9% of the Moon is Illuminated
Nov 16
Waxing Crescent
Nov 20
First Quarter
Nov 28
Full
Dec 6
Last Quarter
Dec 13
New

Hourly Weather History & Observations

Time (CET) Temp. Dew Point Humidity Pressure Visibility Wind Dir Wind Speed Gust Speed Precip Events Conditions
12:55 AM 57.2 °F 53.6 °F 88% 30.01 in 6.2 mi Calm Calm - N/A   Partly Cloudy
1:00 AM 57 °F 53 °F 82% 30.01 in 6 mi Calm Calm - -   Scattered Clouds
1:55 AM 55.4 °F 51.8 °F 88% 29.98 in 6.2 mi Calm Calm - N/A   Partly Cloudy
2:55 AM 55.4 °F 51.8 °F 88% 29.98 in 6.2 mi Calm Calm - N/A   Partly Cloudy
3:55 AM 55.4 °F 50.0 °F 82% 29.98 in 6.2 mi NNE 2.3 mph - N/A   Partly Cloudy
4:00 AM 55 °F 50 °F 78% 30.00 in 6 mi NNE 2.3 mph - -   Scattered Clouds
4:55 AM 53.6 °F 48.2 °F 82% 29.98 in 6.2 mi North 2.3 mph - N/A   Partly Cloudy
5:55 AM 51.8 °F 46.4 °F 82% 29.98 in 3.7 mi WNW 2.3 mph - N/A   Scattered Clouds
6:55 AM 51.8 °F 46.4 °F 82% 29.98 in 3.7 mi North 2.3 mph - N/A   Scattered Clouds
7:00 AM 51 °F 47 °F 80% 30.00 in 4 mi North 2.3 mph - -   Mist
7:55 AM 50.0 °F 46.4 °F 87% 30.01 in 3.7 mi North 2.3 mph - N/A   Scattered Clouds
8:55 AM 55.4 °F 50.0 °F 82% 30.01 in 4.3 mi NW 1.2 mph - N/A   Scattered Clouds
10:00 AM 59 °F 54 °F 77% 30.04 in 4 mi NNW 2.3 mph - -   Mist
10:55 AM 64.4 °F 57.2 °F 77% 30.04 in 5.0 mi NW 4.6 mph - N/A   Partly Cloudy
11:55 AM 64.4 °F 57.2 °F 77% 30.01 in 6.2 mi NNW 5.8 mph - N/A   Scattered Clouds
12:55 PM 64.4 °F 57.2 °F 77% 30.01 in 6.2 mi NW 4.6 mph - N/A   Scattered Clouds
1:00 PM 65 °F 58 °F 71% 30.01 in 7 mi NW 4.6 mph - -   Partly Cloudy
1:55 PM 68.0 °F 55.4 °F 64% 29.98 in 6.2 mi NNW 4.6 mph - N/A   Scattered Clouds
2:55 PM 68.0 °F 55.4 °F 64% 29.98 in 6.2 mi NW 4.6 mph - N/A   Partly Cloudy
4:00 PM 66 °F 53 °F 53% 30.00 in 7 mi NNW 4.6 mph - -   Partly Cloudy
4:55 PM 64.4 °F 55.4 °F 73% 29.98 in 6.2 mi NNW 4.6 mph - N/A   Partly Cloudy
5:55 PM 62.6 °F 53.6 °F 72% 29.98 in 6.2 mi North 3.5 mph - N/A   Scattered Clouds
6:55 PM 60.8 °F 55.4 °F 82% 30.01 in 6.2 mi NE 2.3 mph - N/A   Scattered Clouds
7:00 PM 61 °F 55 °F 73% 30.02 in 7 mi NE 2.3 mph - -   Mostly Cloudy
7:55 PM 60.8 °F 55.4 °F 82% 30.01 in 6.2 mi NNW 3.5 mph - N/A   Scattered Clouds
8:55 PM 57.2 °F 53.6 °F 88% 30.01 in 6.2 mi NW 1.2 mph - N/A   Scattered Clouds
9:55 PM 55.4 °F 51.8 °F 88% 30.01 in 6.2 mi WNW 2.3 mph - N/A   Partly Cloudy
10:00 PM 55 °F 53 °F 88% 30.02 in 9 mi WNW 2.3 mph - -   Partly Cloudy
10:55 PM 55.4 °F 51.8 °F 88% 30.01 in 6.2 mi North 2.3 mph - N/A   Scattered Clouds
11:55 PM 55.4 °F 51.8 °F 88% 30.01 in 6.2 mi NNE 2.3 mph - N/A   Scattered Clouds